Fergus Falls, MN

2:16 PM CDT on August 25, 2016 (GMT -0500)
Fergus Falls Municipal-Mickelson

Weather History for KFFM - November, 2013

Change the Weather History Date:

Sunday, November 3, 2013

  Actual Average Record
Temperature  
Mean Temperature 45 °F -  
Max Temperature 53 °F 43 °F 71 °F (2008)
Min Temperature 37 °F 27 °F 6 °F (1951)
Degree Days  
Heating Degree Days 20    
Moisture  
Dew Point 30 °F    
Average Humidity 55    
Maximum Humidity 81    
Minimum Humidity 35    
Precipitation  
Precipitation 0.00 in - - ()
Sea Level Pressure  
Sea Level Pressure 29.81 in    
Wind  
Wind Speed 17 mph (SE)    
Max Wind Speed 33 mph    
Max Gust Speed 44 mph    
Visibility 10 miles    
Events      
Averages and records for this station are not official NWS values.
T = Trace of Precipitation, MM = Missing Value Source: NWS Daily Summary

Daily Weather History Graph

Daily Weather History Graph

Search for Another Location

Airport or City:

Trip Planner

Search our weather history database for the weather conditions in past years. The results will help you decide how hot, cold, wet, or windy it might be!

Date:

Astronomy

Nov. 03, 2013 Rise Set
Actual Time 7:09 AM CST 5:06 PM CST
Civil Twilight 6:37 AM CST 5:38 PM CST
Nautical Twilight 6:01 AM CST 6:13 PM CST
Astronomical Twilight 5:26 AM CST 6:48 PM CST
Moon 7:15 AM CST (11/3) 5:20 PM CST (11/3)
Length of Visible Light 11h 00m
Length of Day
9h 57m
New Moon, 0% of the Moon is Illuminated
Nov 3
New Moon
Nov 9
First Quarter
Nov 17
Full
Nov 25
Last Quarter
Dec 2
New

Hourly Weather History & Observations

Time (CST) Temp. Windchill Dew Point Humidity Pressure Visibility Wind Dir Wind Speed Gust Speed Precip Events Conditions
12:13 AM 37.4 °F 31.4 °F 32.0 °F 81% 30.00 in 10.0 mi SE 8.1 mph - N/A   Clear
12:33 AM 37.4 °F 31.4 °F 32.0 °F 81% 30.00 in 10.0 mi SE 8.1 mph - N/A   Clear
12:53 AM 39.2 °F 32.5 °F 32.0 °F 75% 30.00 in 10.0 mi SSE 10.4 mph - N/A   Clear
1:13 AM 39.2 °F 32.0 °F 32.0 °F 75% 30.00 in 10.0 mi SSE 11.5 mph - N/A   Clear
1:33 AM 39.2 °F 31.6 °F 33.8 °F 81% 30.00 in 10.0 mi SSE 12.7 mph - N/A   Clear
1:53 AM 41.0 °F 33.9 °F 33.8 °F 76% 29.99 in 10.0 mi SSE 12.7 mph - N/A   Clear
1:13 AM 41.0 °F 33.5 °F 32.0 °F 70% 29.98 in 10.0 mi SE 13.8 mph 18.4 mph N/A   Clear
1:33 AM 41.0 °F 33.5 °F 32.0 °F 70% 29.98 in 10.0 mi SE 13.8 mph - N/A   Clear
1:53 AM 41.0 °F 33.9 °F 32.0 °F 70% 29.98 in 10.0 mi SSE 12.7 mph - N/A   Clear
2:13 AM 41.0 °F 33.5 °F 32.0 °F 70% 29.97 in 10.0 mi SE 13.8 mph - N/A   Clear
2:33 AM 41.0 °F 33.9 °F 32.0 °F 70% 29.96 in 10.0 mi SE 12.7 mph - N/A   Clear
2:53 AM 41.0 °F 33.5 °F 32.0 °F 70% 29.95 in 10.0 mi SE 13.8 mph - N/A   Clear
3:13 AM 41.0 °F 33.5 °F 32.0 °F 70% 29.94 in 10.0 mi SE 13.8 mph - N/A   Clear
3:33 AM 41.0 °F 33.5 °F 32.0 °F 70% 29.93 in 10.0 mi SE 13.8 mph - N/A   Clear
3:53 AM 41.0 °F 33.1 °F 32.0 °F 70% 29.92 in 10.0 mi SE 15.0 mph - N/A   Clear
4:13 AM 41.0 °F 33.1 °F 30.2 °F 65% 29.91 in 10.0 mi SE 15.0 mph - N/A   Clear
4:33 AM 41.0 °F 33.1 °F 30.2 °F 65% 29.91 in 10.0 mi SE 15.0 mph - N/A   Clear
4:53 AM 41.0 °F 33.1 °F 30.2 °F 65% 29.90 in 10.0 mi SE 15.0 mph - N/A   Clear
5:13 AM 39.2 °F 31.2 °F 30.2 °F 70% 29.90 in 10.0 mi SE 13.8 mph - N/A   Clear
5:33 AM 41.0 °F 32.8 °F 30.2 °F 65% 29.89 in 10.0 mi SE 16.1 mph - N/A   Clear
5:53 AM 41.0 °F 32.8 °F 30.2 °F 65% 29.88 in 10.0 mi ESE 16.1 mph - N/A   Clear
6:13 AM 41.0 °F 32.2 °F 28.4 °F 61% 29.88 in 10.0 mi SE 18.4 mph - N/A   Clear
6:33 AM 41.0 °F 32.5 °F 28.4 °F 61% 29.87 in 10.0 mi SE 17.3 mph - N/A   Clear
6:53 AM 39.2 °F 30.2 °F 28.4 °F 65% 29.87 in 10.0 mi SE 17.3 mph 23.0 mph N/A   Clear
7:13 AM 39.2 °F 29.8 °F 28.4 °F 65% 29.86 in 10.0 mi SE 18.4 mph 25.3 mph N/A   Clear
7:33 AM 41.0 °F 32.5 °F 28.4 °F 61% 29.86 in 10.0 mi SE 17.3 mph 26.5 mph N/A   Clear
7:53 AM 41.0 °F 31.9 °F 28.4 °F 61% 29.86 in 10.0 mi SE 19.6 mph 23.0 mph N/A   Clear
8:13 AM 41.0 °F 31.9 °F 28.4 °F 61% 29.85 in 10.0 mi SE 19.6 mph 29.9 mph N/A   Clear
8:33 AM 41.0 °F 31.9 °F 28.4 °F 61% 29.85 in 10.0 mi SE 19.6 mph 29.9 mph N/A   Clear
8:53 AM 41.0 °F 31.6 °F 28.4 °F 61% 29.84 in 10.0 mi SE 20.7 mph 26.5 mph N/A   Clear
9:13 AM 41.0 °F 31.6 °F 28.4 °F 61% 29.83 in 10.0 mi SE 20.7 mph 27.6 mph N/A   Clear
9:33 AM 42.8 °F 34.0 °F 30.2 °F 61% 29.82 in 10.0 mi SE 20.7 mph 29.9 mph N/A   Clear
9:53 AM 42.8 °F 33.8 °F 30.2 °F 61% 29.81 in 10.0 mi SE 21.9 mph 31.1 mph N/A   Clear
10:13 AM 44.6 °F 35.5 °F 30.2 °F 57% 29.80 in 10.0 mi SE 25.3 mph 32.2 mph N/A   Clear
10:33 AM 46.4 °F 37.5 °F 30.2 °F 53% 29.78 in 10.0 mi SE 27.6 mph 33.4 mph N/A   Clear
10:53 AM 48.2 °F - 30.2 °F 50% 29.77 in 10.0 mi SE 27.6 mph 35.7 mph N/A   Clear
11:13 AM 48.2 °F - 30.2 °F 50% 29.77 in 10.0 mi SSE 25.3 mph 35.7 mph N/A   Clear
11:33 AM 48.2 °F - 26.6 °F 43% 29.76 in 10.0 mi SSE 32.2 mph 40.3 mph N/A   Clear
11:53 AM 51.8 °F - 28.4 °F 41% 29.74 in 10.0 mi SSE 31.1 mph 42.6 mph N/A   Clear
12:13 PM 50.0 °F - 28.4 °F 43% 29.73 in 10.0 mi SSE 28.8 mph 41.4 mph N/A   Clear
12:33 PM 51.8 °F - 30.2 °F 44% 29.72 in 10.0 mi SSE 24.2 mph 38.0 mph N/A   Clear
12:53 PM 51.8 °F - 28.4 °F 41% 29.72 in 10.0 mi SSE 29.9 mph 43.7 mph N/A   Clear
1:13 PM 51.8 °F - 30.2 °F 44% 29.71 in 10.0 mi SSE 29.9 mph 39.1 mph N/A   Clear
1:33 PM 51.8 °F - 30.2 °F 44% 29.71 in 10.0 mi SSE 31.1 mph 41.4 mph N/A   Clear
1:53 PM 51.8 °F - 28.4 °F 41% 29.70 in 10.0 mi SSE 33.4 mph 40.3 mph N/A   Clear
2:13 PM 51.8 °F - 28.4 °F 41% 29.70 in 10.0 mi SSE 27.6 mph 42.6 mph N/A   Clear
2:33 PM 51.8 °F - 28.4 °F 41% 29.69 in 10.0 mi SSE 27.6 mph 34.5 mph N/A   Clear
2:53 PM 51.8 °F - 28.4 °F 41% 29.69 in 10.0 mi SSE 21.9 mph 32.2 mph N/A   Clear
3:13 PM 53.6 °F - 28.4 °F 38% 29.69 in 10.0 mi SSE 26.5 mph 38.0 mph N/A   Clear
3:33 PM 53.6 °F - 28.4 °F 38% 29.70 in 10.0 mi SSE 28.8 mph 34.5 mph N/A   Clear
3:53 PM 53.6 °F - 26.6 °F 35% 29.69 in 10.0 mi SSE 28.8 mph 39.1 mph N/A   Clear
4:13 PM 51.8 °F - 28.4 °F 41% 29.69 in 10.0 mi SSE 26.5 mph 35.7 mph N/A   Clear
4:33 PM 51.8 °F - 28.4 °F 41% 29.69 in 10.0 mi SSE 19.6 mph 33.4 mph N/A   Clear
4:53 PM 51.8 °F - 28.4 °F 41% 29.68 in 10.0 mi SSE 20.7 mph 31.1 mph N/A   Clear
5:13 PM 51.8 °F - 28.4 °F 41% 29.69 in 10.0 mi SSE 20.7 mph 26.5 mph N/A   Clear
5:33 PM 51.8 °F - 28.4 °F 41% 29.70 in 10.0 mi SSE 23.0 mph 31.1 mph N/A   Clear
5:53 PM 51.8 °F - 26.6 °F 38% 29.70 in 10.0 mi SSE 23.0 mph 29.9 mph N/A   Clear
6:13 PM 51.8 °F - 28.4 °F 41% 29.70 in 10.0 mi SSE 20.7 mph 28.8 mph N/A   Clear
6:33 PM 50.0 °F - 28.4 °F 43% 29.70 in 10.0 mi SSE 21.9 mph 29.9 mph N/A   Clear
6:53 PM 50.0 °F - 28.4 °F 43% 29.70 in 10.0 mi SSE 20.7 mph 27.6 mph N/A   Clear
7:13 PM 48.2 °F - 28.4 °F 46% 29.71 in 10.0 mi SSE 24.2 mph 29.9 mph N/A   Scattered Clouds
7:33 PM 48.2 °F - 28.4 °F 46% 29.71 in 10.0 mi SSE 19.6 mph 28.8 mph N/A   Scattered Clouds
7:53 PM 48.2 °F - 28.4 °F 46% 29.71 in 10.0 mi SSE 23.0 mph 26.5 mph N/A   Clear
8:13 PM 48.2 °F - 28.4 °F 46% 29.70 in 10.0 mi SSE 23.0 mph 28.8 mph N/A   Clear
8:33 PM 48.2 °F - 28.4 °F 46% 29.70 in 10.0 mi SSE 21.9 mph - N/A   Clear
8:53 PM 48.2 °F - 28.4 °F 46% 29.70 in 10.0 mi SSE 23.0 mph 29.9 mph N/A   Scattered Clouds
9:13 PM 48.2 °F - 28.4 °F 46% 29.70 in 10.0 mi SSE 23.0 mph 31.1 mph N/A   Mostly Cloudy
9:33 PM 48.2 °F - 30.2 °F 50% 29.70 in 10.0 mi SSE 24.2 mph 32.2 mph N/A   Overcast
9:53 PM 48.2 °F - 30.2 °F 50% 29.71 in 10.0 mi SSE 26.5 mph 33.4 mph N/A   Overcast
10:13 PM 48.2 °F - 30.2 °F 50% 29.71 in 10.0 mi SSE 23.0 mph 29.9 mph N/A   Overcast
10:33 PM 48.2 °F - 30.2 °F 50% 29.70 in 10.0 mi SSE 21.9 mph 29.9 mph N/A   Overcast
10:53 PM 48.2 °F - 30.2 °F 50% 29.70 in 10.0 mi SSE 21.9 mph 29.9 mph N/A   Overcast